Time,TemperatureF,DewpointF,PressureIn,WindDirection,WindDirectionDegrees,WindSpeedMPH,WindSpeedGustMPH,Humidity,HourlyPrecipIn,Conditions,Clouds,dailyrainin,SoftwareType,DateUTC
2016-07-24 00:02:00,76.6,71.4,29.89,SSW,206,5.0,5.0,84,0.00,,---,0.00,VWS V15.00,2016-07-24 04:02:00,
2016-07-24 00:07:00,76.7,71.5,29.89,SSW,200,0.0,4.0,84,0.00,,---,0.00,VWS V15.00,2016-07-24 04:07:00,
2016-07-24 00:12:00,76.7,71.2,29.89,SW,231,2.0,4.0,83,0.00,,---,0.00,VWS V15.00,2016-07-24 04:12:00,
2016-07-24 00:17:00,76.6,71.4,29.89,SW,214,3.0,5.0,84,0.00,,---,0.00,VWS V15.00,2016-07-24 04:17:00,
2016-07-24 00:22:00,76.6,71.8,29.89,SSW,209,5.0,5.0,85,0.00,,---,0.00,VWS V15.00,2016-07-24 04:22:00,
2016-07-24 00:28:00,76.6,72.1,29.90,SW,215,1.0,3.0,86,0.00,,---,0.00,VWS V15.00,2016-07-24 04:28:00,
2016-07-24 00:33:00,76.4,71.9,29.90,SW,218,0.0,4.0,86,0.00,,---,0.00,VWS V15.00,2016-07-24 04:33:00,
2016-07-24 00:38:00,76.2,71.7,29.90,SSW,210,0.0,5.0,86,0.00,,---,0.00,VWS V15.00,2016-07-24 04:38:00,
2016-07-24 00:43:00,76.0,71.5,29.90,SSW,212,3.0,4.0,86,0.00,,---,0.00,VWS V15.00,2016-07-24 04:43:00,
2016-07-24 00:48:00,75.9,71.4,29.90,SSW,210,0.0,4.0,86,0.00,,---,0.00,VWS V15.00,2016-07-24 04:48:00,
2016-07-24 00:53:00,75.8,71.7,29.90,SSW,199,1.0,5.0,87,0.00,,---,0.00,VWS V15.00,2016-07-24 04:53:00,
2016-07-24 00:58:00,75.9,71.8,29.90,SSW,212,1.0,5.0,87,0.00,,---,0.00,VWS V15.00,2016-07-24 04:58:00,
2016-07-24 01:03:00,76.0,71.9,29.90,SW,227,0.0,4.0,87,0.00,,---,0.00,VWS V15.00,2016-07-24 05:03:00,
2016-07-24 01:08:00,76.0,71.9,29.90,SW,215,0.0,4.0,87,0.00,,---,0.00,VWS V15.00,2016-07-24 05:08:00,
2016-07-24 01:13:00,76.0,71.9,29.90,SSW,212,4.0,5.0,87,0.00,,---,0.00,VWS V15.00,2016-07-24 05:13:00,
2016-07-24 01:18:00,75.9,71.8,29.90,SW,235,0.0,2.0,87,0.00,,---,0.00,VWS V15.00,2016-07-24 05:18:00,
2016-07-24 01:23:00,75.9,71.8,29.90,SSW,210,0.0,4.0,87,0.00,,---,0.00,VWS V15.00,2016-07-24 05:23:00,
2016-07-24 01:28:00,75.8,71.7,29.90,SSW,208,0.0,0.0,87,0.00,,---,0.00,VWS V15.00,2016-07-24 05:28:00,
2016-07-24 01:33:00,75.7,71.9,29.90,SSW,212,0.0,0.0,88,0.00,,---,0.00,VWS V15.00,2016-07-24 05:33:00,
2016-07-24 01:38:00,75.6,71.5,29.90,SW,215,0.0,0.0,87,0.00,,---,0.00,VWS V15.00,2016-07-24 05:38:00,
2016-07-24 01:43:00,75.5,71.4,29.90,SW,215,0.0,0.0,87,0.00,,---,0.00,VWS V15.00,2016-07-24 05:43:00,
2016-07-24 01:48:00,75.5,71.4,29.91,SW,216,0.0,0.0,87,0.00,,---,0.00,VWS V15.00,2016-07-24 05:48:00,
2016-07-24 01:53:00,75.6,71.8,29.91,SW,215,0.0,0.0,88,0.00,,---,0.00,VWS V15.00,2016-07-24 05:53:00,
2016-07-24 01:58:00,75.5,71.7,29.91,SSW,212,0.0,4.0,88,0.00,,---,0.00,VWS V15.00,2016-07-24 05:58:00,
2016-07-24 02:03:00,75.2,71.7,29.91,SSW,206,0.0,6.0,89,0.00,,---,0.00,VWS V15.00,2016-07-24 06:03:00,
2016-07-24 02:08:00,74.9,71.4,29.91,South,185,1.0,6.0,89,0.00,,---,0.00,VWS V15.00,2016-07-24 06:08:00,
2016-07-24 02:13:00,74.8,71.3,29.92,SSW,199,0.0,5.0,89,0.00,,---,0.00,VWS V15.00,2016-07-24 06:13:00,
2016-07-24 02:18:00,74.6,71.2,29.91,SSW,198,0.0,5.0,89,0.00,,---,0.00,VWS V15.00,2016-07-24 06:18:00,
2016-07-24 02:23:00,74.3,70.8,29.92,SSW,204,0.0,5.0,89,0.00,,---,0.00,VWS V15.00,2016-07-24 06:23:00,
2016-07-24 02:28:00,74.1,70.7,29.92,SSW,209,2.0,3.0,89,0.00,,---,0.00,VWS V15.00,2016-07-24 06:28:00,
2016-07-24 02:33:00,74.1,71.0,29.92,SW,229,5.0,5.0,90,0.00,,---,0.00,VWS V15.00,2016-07-24 06:33:00,
2016-07-24 02:38:00,74.0,70.9,29.92,SSW,210,2.0,4.0,90,0.00,,---,0.00,VWS V15.00,2016-07-24 06:38:00,
2016-07-24 02:43:00,73.9,71.1,29.92,SSW,210,0.0,1.0,91,0.00,,---,0.00,VWS V15.00,2016-07-24 06:43:00,
2016-07-24 02:48:00,73.6,70.8,29.92,SSW,213,0.0,4.0,91,0.00,,---,0.00,VWS V15.00,2016-07-24 06:48:00,
2016-07-24 02:53:00,73.4,70.6,29.92,SW,218,0.0,0.0,91,0.00,,---,0.00,VWS V15.00,2016-07-24 06:53:00,
2016-07-24 02:59:00,73.3,70.8,29.92,SW,216,0.0,0.0,92,0.00,,---,0.00,VWS V15.00,2016-07-24 06:59:00,
2016-07-24 03:04:00,73.3,70.8,29.92,SW,215,0.0,0.0,92,0.00,,---,0.00,VWS V15.00,2016-07-24 07:04:00,
2016-07-24 03:09:00,73.2,70.7,29.92,SSW,213,0.0,2.0,92,0.00,,---,0.00,VWS V15.00,2016-07-24 07:09:00,
2016-07-24 03:14:00,73.1,70.6,29.92,SW,221,0.0,2.0,92,0.00,,---,0.00,VWS V15.00,2016-07-24 07:14:00,
2016-07-24 03:19:00,73.0,70.5,29.92,SW,219,0.0,0.0,92,0.00,,---,0.00,VWS V15.00,2016-07-24 07:19:00,
2016-07-24 03:24:00,72.9,70.8,29.92,SW,218,0.0,0.0,93,0.00,,---,0.00,VWS V15.00,2016-07-24 07:24:00,
2016-07-24 03:29:00,72.8,70.3,29.91,SW,218,0.0,0.0,92,0.00,,---,0.00,VWS V15.00,2016-07-24 07:29:00,
2016-07-24 03:34:00,72.8,70.7,29.92,SW,218,0.0,0.0,93,0.00,,---,0.00,VWS V15.00,2016-07-24 07:34:00,
2016-07-24 03:39:00,73.0,70.9,29.92,SW,218,0.0,0.0,93,0.00,,---,0.00,VWS V15.00,2016-07-24 07:39:00,
2016-07-24 03:44:00,73.0,70.9,29.92,SW,218,0.0,0.0,93,0.00,,---,0.00,VWS V15.00,2016-07-24 07:44:00,
2016-07-24 03:49:00,72.9,70.8,29.92,SW,218,0.0,0.0,93,0.00,,---,0.00,VWS V15.00,2016-07-24 07:49:00,
2016-07-24 03:54:00,72.9,70.8,29.92,SW,218,0.0,0.0,93,0.00,,---,0.00,VWS V15.00,2016-07-24 07:54:00,
2016-07-24 03:59:00,72.8,70.7,29.92,SW,218,0.0,0.0,93,0.00,,---,0.00,VWS V15.00,2016-07-24 07:59:00,
2016-07-24 04:04:00,72.7,70.6,29.92,SW,218,0.0,0.0,93,0.00,,---,0.00,VWS V15.00,2016-07-24 08:04:00,
2016-07-24 04:09:00,72.8,70.7,29.92,SW,218,0.0,0.0,93,0.00,,---,0.00,VWS V15.00,2016-07-24 08:09:00,
2016-07-24 04:14:00,72.8,70.7,29.92,SW,218,0.0,0.0,93,0.00,,---,0.00,VWS V15.00,2016-07-24 08:14:00,
2016-07-24 04:19:00,72.7,70.6,29.92,SW,218,0.0,0.0,93,0.00,,---,0.00,VWS V15.00,2016-07-24 08:19:00,
2016-07-24 04:24:00,72.7,70.6,29.92,SW,218,0.0,0.0,93,0.00,,---,0.00,VWS V15.00,2016-07-24 08:24:00,
2016-07-24 04:29:00,72.8,71.0,29.92,SW,218,0.0,0.0,94,0.00,,---,0.00,VWS V15.00,2016-07-24 08:29:00,
2016-07-24 04:34:00,72.7,70.6,29.92,SW,218,0.0,0.0,93,0.00,,---,0.00,VWS V15.00,2016-07-24 08:34:00,
2016-07-24 04:39:00,72.4,69.9,29.92,SW,218,0.0,0.0,92,0.00,,---,0.00,VWS V15.00,2016-07-24 08:39:00,
2016-07-24 04:44:00,72.5,70.1,29.92,SW,218,0.0,0.0,92,0.00,,---,0.00,VWS V15.00,2016-07-24 08:44:00,
2016-07-24 04:49:00,72.3,69.8,29.92,SW,218,0.0,0.0,92,0.00,,---,0.00,VWS V15.00,2016-07-24 08:49:00,
2016-07-24 04:54:00,72.4,69.6,29.92,SW,218,0.0,0.0,91,0.00,,---,0.00,VWS V15.00,2016-07-24 08:54:00,
2016-07-24 04:59:00,72.5,69.4,29.92,SW,218,0.0,0.0,90,0.00,,---,0.00,VWS V15.00,2016-07-24 08:59:00,
2016-07-24 05:04:00,72.8,69.4,29.93,SW,218,0.0,0.0,89,0.00,,---,0.00,VWS V15.00,2016-07-24 09:04:00,
2016-07-24 05:09:00,72.9,69.1,29.93,SW,218,0.0,0.0,88,0.00,,---,0.00,VWS V15.00,2016-07-24 09:09:00,
2016-07-24 05:14:00,72.9,68.8,29.93,SW,218,0.0,0.0,87,0.00,,---,0.00,VWS V15.00,2016-07-24 09:14:00,
2016-07-24 05:19:00,72.9,68.8,29.93,SW,218,0.0,0.0,87,0.00,,---,0.00,VWS V15.00,2016-07-24 09:19:00,
2016-07-24 05:24:00,73.1,69.0,29.93,SW,218,0.0,0.0,87,0.00,,---,0.00,VWS V15.00,2016-07-24 09:24:00,
2016-07-24 05:29:00,73.0,68.6,29.93,SW,218,0.0,0.0,86,0.00,,---,0.00,VWS V15.00,2016-07-24 09:29:00,
2016-07-24 05:34:00,72.9,68.5,29.93,SW,218,0.0,0.0,86,0.00,,---,0.00,VWS V15.00,2016-07-24 09:34:00,
2016-07-24 05:39:00,73.0,68.2,29.94,SW,218,0.0,0.0,85,0.00,,---,0.00,VWS V15.00,2016-07-24 09:39:00,
2016-07-24 05:44:00,73.1,68.0,29.94,SW,218,0.0,0.0,84,0.00,,---,0.00,VWS V15.00,2016-07-24 09:44:00,
2016-07-24 05:49:00,73.1,68.0,29.94,SW,218,0.0,0.0,84,0.00,,---,0.00,VWS V15.00,2016-07-24 09:49:00,
2016-07-24 05:59:00,73.2,67.7,29.94,SW,220,0.0,0.0,83,0.00,,---,0.00,VWS V15.00,2016-07-24 09:59:00,
2016-07-24 06:05:00,73.3,67.5,29.95,SW,220,0.0,0.0,82,0.00,,---,0.00,VWS V15.00,2016-07-24 10:05:00,
2016-07-24 06:10:00,73.4,67.6,29.94,SW,220,0.0,0.0,82,0.00,,---,0.00,VWS V15.00,2016-07-24 10:10:00,
2016-07-24 06:15:00,73.4,67.2,29.95,SW,228,0.0,0.0,81,0.00,,---,0.00,VWS V15.00,2016-07-24 10:15:00,
2016-07-24 06:20:00,73.5,67.3,29.95,SW,229,0.0,0.0,81,0.00,,---,0.00,VWS V15.00,2016-07-24 10:20:00,
2016-07-24 06:25:00,73.6,67.4,29.95,WSW,254,0.0,0.0,81,0.00,,---,0.00,VWS V15.00,2016-07-24 10:25:00,
2016-07-24 06:30:00,73.7,67.5,29.95,WSW,254,0.0,0.0,81,0.00,,---,0.00,VWS V15.00,2016-07-24 10:30:00,
2016-07-24 06:35:00,73.7,67.9,29.96,WSW,254,0.0,0.0,82,0.00,,---,0.00,VWS V15.00,2016-07-24 10:35:00,
2016-07-24 06:40:00,73.7,67.9,29.96,WSW,254,0.0,0.0,82,0.00,,---,0.00,VWS V15.00,2016-07-24 10:40:00,
2016-07-24 06:45:00,73.8,68.0,29.96,WSW,258,0.0,0.0,82,0.00,,---,0.00,VWS V15.00,2016-07-24 10:45:00,
2016-07-24 06:50:00,73.8,68.0,29.96,WSW,258,0.0,0.0,82,0.00,,---,0.00,VWS V15.00,2016-07-24 10:50:00,
2016-07-24 06:55:00,74.0,68.2,29.96,West,275,0.0,0.0,82,0.00,,---,0.00,VWS V15.00,2016-07-24 10:55:00,
2016-07-24 07:00:00,74.2,68.4,29.96,WNW,295,0.0,0.0,82,0.00,,---,0.00,VWS V15.00,2016-07-24 11:00:00,
2016-07-24 07:05:00,74.6,68.4,29.96,WNW,295,0.0,0.0,81,0.00,,---,0.00,VWS V15.00,2016-07-24 11:05:00,
2016-07-24 07:10:00,74.8,68.6,29.97,South,186,0.0,0.0,81,0.00,,---,0.00,VWS V15.00,2016-07-24 11:10:00,
2016-07-24 07:15:00,75.2,69.0,29.97,SW,229,0.0,0.0,81,0.00,,---,0.00,VWS V15.00,2016-07-24 11:15:00,
2016-07-24 07:25:00,75.8,69.2,29.97,WSW,249,0.0,0.0,80,0.00,,---,0.00,VWS V15.00,2016-07-24 11:25:00,
2016-07-24 07:35:00,76.7,69.3,29.97,WSW,251,0.0,0.0,78,0.00,,---,0.00,VWS V15.00,2016-07-24 11:35:00,
2016-07-24 07:40:00,77.4,69.6,29.97,West,268,0.0,0.0,77,0.00,,---,0.00,VWS V15.00,2016-07-24 11:40:00,
2016-07-24 07:45:00,78.1,69.9,29.97,NNW,335,0.0,0.0,76,0.00,,---,0.00,VWS V15.00,2016-07-24 11:45:00,
2016-07-24 07:50:00,78.6,69.6,29.97,NNW,335,0.0,0.0,74,0.00,,---,0.00,VWS V15.00,2016-07-24 11:50:00,
2016-07-24 07:55:00,78.9,69.5,29.97,WNW,284,0.0,1.0,73,0.00,,---,0.00,VWS V15.00,2016-07-24 11:55:00,
2016-07-24 08:00:00,79.1,69.7,29.97,WNW,288,0.0,0.0,73,0.00,,---,0.00,VWS V15.00,2016-07-24 12:00:00,
2016-07-24 08:05:00,79.4,69.6,29.97,WNW,294,0.0,0.0,72,0.00,,---,0.00,VWS V15.00,2016-07-24 12:05:00,
2016-07-24 08:10:00,79.8,69.6,29.97,North,360,0.0,1.0,71,0.00,,---,0.00,VWS V15.00,2016-07-24 12:10:00,
2016-07-24 08:15:00,79.9,68.8,29.97,North,356,0.0,1.0,69,0.00,,---,0.00,VWS V15.00,2016-07-24 12:15:00,
2016-07-24 08:20:00,80.2,68.3,29.97,West,274,0.0,1.0,67,0.00,,---,0.00,VWS V15.00,2016-07-24 12:20:00,
2016-07-24 08:25:00,80.5,68.5,29.97,North,360,0.0,0.0,67,0.00,,---,0.00,VWS V15.00,2016-07-24 12:25:00,
2016-07-24 08:30:00,80.8,68.4,29.97,North,359,0.0,0.0,66,0.00,,---,0.00,VWS V15.00,2016-07-24 12:30:00,
2016-07-24 08:35:00,81.0,68.1,29.97,NW,318,0.0,0.0,65,0.00,,---,0.00,VWS V15.00,2016-07-24 12:35:00,
2016-07-24 08:40:00,81.3,68.4,29.97,NNE,22,0.0,0.0,65,0.00,,---,0.00,VWS V15.00,2016-07-24 12:40:00,
2016-07-24 08:45:00,81.7,67.4,29.97,NNE,22,0.0,0.0,62,0.00,,---,0.00,VWS V15.00,2016-07-24 12:45:00,
2016-07-24 08:50:00,81.7,66.0,29.97,WNW,293,0.0,1.0,59,0.00,,---,0.00,VWS V15.00,2016-07-24 12:50:00,
2016-07-24 08:55:00,81.8,67.1,29.97,NW,306,0.0,0.0,61,0.00,,---,0.00,VWS V15.00,2016-07-24 12:55:00,
2016-07-24 09:01:00,82.1,66.8,29.97,North,359,0.0,1.0,60,0.00,,---,0.00,VWS V15.00,2016-07-24 13:01:00,
2016-07-24 09:06:00,82.7,66.9,29.97,NNW,335,0.0,0.0,59,0.00,,---,0.00,VWS V15.00,2016-07-24 13:06:00,
2016-07-24 09:11:00,82.7,66.4,29.97,NNW,335,0.0,0.0,58,0.00,,---,0.00,VWS V15.00,2016-07-24 13:11:00,
2016-07-24 09:16:00,82.6,66.3,29.97,NNW,335,0.0,0.0,58,0.00,,---,0.00,VWS V15.00,2016-07-24 13:16:00,
2016-07-24 09:21:00,82.9,67.1,29.97,NNE,17,0.0,0.0,59,0.00,,---,0.00,VWS V15.00,2016-07-24 13:21:00,
2016-07-24 09:26:00,83.2,66.9,29.98,North,352,0.0,0.0,58,0.00,,---,0.00,VWS V15.00,2016-07-24 13:26:00,
2016-07-24 09:31:00,83.6,66.3,29.98,NNE,12,0.0,1.0,56,0.00,,---,0.00,VWS V15.00,2016-07-24 13:31:00,
2016-07-24 09:36:00,83.8,67.0,29.97,NNE,14,0.0,0.0,57,0.00,,---,0.00,VWS V15.00,2016-07-24 13:36:00,
2016-07-24 09:41:00,83.7,66.3,29.97,NNE,24,0.0,1.0,56,0.00,,---,0.00,VWS V15.00,2016-07-24 13:41:00,
2016-07-24 09:46:00,84.0,66.1,29.97,NNE,19,0.0,0.0,55,0.00,,---,0.00,VWS V15.00,2016-07-24 13:46:00,
2016-07-24 09:51:00,84.0,65.1,29.98,North,356,0.0,2.0,53,0.00,,---,0.00,VWS V15.00,2016-07-24 13:51:00,
2016-07-24 09:56:00,84.1,64.6,29.98,NNE,16,0.0,0.0,52,0.00,,---,0.00,VWS V15.00,2016-07-24 13:56:00,
2016-07-24 10:01:00,84.3,65.9,29.98,NNE,19,1.0,1.0,54,0.00,,---,0.00,VWS V15.00,2016-07-24 14:01:00,
2016-07-24 10:06:00,84.2,65.8,29.98,NNE,21,0.0,0.0,54,0.00,,---,0.00,VWS V15.00,2016-07-24 14:06:00,
2016-07-24 10:11:00,84.4,65.4,29.98,NE,54,0.0,2.0,53,0.00,,---,0.00,VWS V15.00,2016-07-24 14:11:00,
2016-07-24 10:16:00,83.9,64.9,29.98,NE,54,0.0,1.0,53,0.00,,---,0.00,VWS V15.00,2016-07-24 14:16:00,
2016-07-24 10:21:00,83.8,65.4,29.98,ENE,60,0.0,1.0,54,0.00,,---,0.00,VWS V15.00,2016-07-24 14:21:00,
2016-07-24 10:26:00,83.8,64.3,29.98,NE,56,0.0,3.0,52,0.00,,---,0.00,VWS V15.00,2016-07-24 14:26:00,
2016-07-24 10:31:00,83.3,64.4,29.98,NE,55,0.0,2.0,53,0.00,,---,0.00,VWS V15.00,2016-07-24 14:31:00,
2016-07-24 10:36:00,83.0,64.7,29.98,NE,53,0.0,1.0,54,0.00,,---,0.00,VWS V15.00,2016-07-24 14:36:00,
2016-07-24 10:41:00,83.3,65.5,29.98,NE,53,0.0,4.0,55,0.00,,---,0.00,VWS V15.00,2016-07-24 14:41:00,
2016-07-24 10:46:00,83.5,65.7,29.98,ENE,59,1.0,2.0,55,0.00,,---,0.00,VWS V15.00,2016-07-24 14:46:00,
2016-07-24 10:51:00,82.7,64.4,29.98,ENE,63,1.0,3.0,54,0.00,,---,0.00,VWS V15.00,2016-07-24 14:51:00,
2016-07-24 10:56:00,82.3,64.5,29.98,ENE,66,1.0,6.0,55,0.00,,---,0.00,VWS V15.00,2016-07-24 14:56:00,
2016-07-24 11:02:00,82.6,64.8,29.98,NE,48,0.0,0.0,55,0.00,,---,0.00,VWS V15.00,2016-07-24 15:02:00,
2016-07-24 11:07:00,82.5,64.2,29.98,ENE,65,2.0,4.0,54,0.00,,---,0.00,VWS V15.00,2016-07-24 15:07:00,
2016-07-24 11:12:00,81.9,64.7,29.98,ENE,62,3.0,5.0,56,0.00,,---,0.00,VWS V15.00,2016-07-24 15:12:00,
2016-07-24 11:17:00,81.8,65.1,29.98,ENE,61,1.0,4.0,57,0.00,,---,0.00,VWS V15.00,2016-07-24 15:17:00,